Time,TemperatureF,DewpointF,PressureIn,WindDirection,WindDirectionDegrees,WindSpeedMPH,WindSpeedGustMPH,Humidity,HourlyPrecipIn,Conditions,Clouds,dailyrainin,SoftwareType,DateUTC
2013-06-30 00:00:00,67.1,65.0,29.34,SW,234,1.0,1.0,93,0.00,,,0.00,Wunderground v.1.15,2013-06-30 04:00:00,
2013-06-30 00:10:00,66.8,64.7,29.34,SW,234,0.0,0.0,93,0.00,,,0.00,Wunderground v.1.15,2013-06-30 04:10:00,
2013-06-30 00:20:00,66.8,64.7,29.34,SSW,213,1.0,5.0,93,0.00,,,0.00,Wunderground v.1.15,2013-06-30 04:20:00,
2013-06-30 00:29:00,67.0,64.6,29.34,SSW,198,3.0,4.0,92,0.00,,,0.00,Wunderground v.1.15,2013-06-30 04:29:00,
2013-06-30 00:40:00,67.0,64.6,29.34,SSW,204,1.0,1.0,92,0.00,,,0.00,Wunderground v.1.15,2013-06-30 04:40:00,
2013-06-30 00:50:00,66.9,64.5,29.34,SSW,204,2.0,2.0,92,0.00,,,0.00,Wunderground v.1.15,2013-06-30 04:50:00,
2013-06-30 01:00:00,66.7,64.3,29.33,SSW,204,0.0,0.0,92,0.00,,,0.00,Wunderground v.1.15,2013-06-30 05:00:00,
2013-06-30 01:10:00,66.3,63.9,29.34,SSW,204,0.0,7.0,92,0.00,,,0.00,Wunderground v.1.15,2013-06-30 05:10:00,
2013-06-30 01:20:00,66.1,63.7,29.34,SSW,204,0.0,7.0,92,0.00,,,0.00,Wunderground v.1.15,2013-06-30 05:20:00,
2013-06-30 01:30:00,65.8,63.4,29.33,SSW,204,0.0,7.0,92,0.00,,,0.00,Wunderground v.1.15,2013-06-30 05:30:00,
2013-06-30 01:39:00,65.5,63.1,29.33,SSW,204,0.0,7.0,92,0.00,,,0.00,Wunderground v.1.15,2013-06-30 05:39:00,
2013-06-30 01:50:00,65.3,63.2,29.34,SSW,204,0.0,7.0,93,0.00,,,0.00,Wunderground v.1.15,2013-06-30 05:50:00,
2013-06-30 02:00:00,65.3,63.5,29.35,SSW,207,4.0,7.0,94,0.00,,,0.00,Wunderground v.1.15,2013-06-30 06:00:00,
2013-06-30 02:10:00,65.6,63.5,29.34,SSW,208,1.0,1.0,93,0.00,,,0.00,Wunderground v.1.15,2013-06-30 06:10:00,
2013-06-30 02:20:00,65.7,63.6,29.34,SSW,208,0.0,7.0,93,0.00,,,0.00,Wunderground v.1.15,2013-06-30 06:20:00,
2013-06-30 02:30:00,65.5,63.7,29.35,NW,306,1.0,1.0,94,0.65,,,0.05,Wunderground v.1.15,2013-06-30 06:30:00,
2013-06-30 02:40:00,64.4,62.3,29.34,NW,318,0.0,7.0,93,0.39,,,0.16,Wunderground v.1.15,2013-06-30 06:40:00,
2013-06-30 02:50:00,62.9,61.1,29.34,NNE,28,1.0,7.0,94,0.05,,,0.16,Wunderground v.1.15,2013-06-30 06:50:00,
2013-06-30 03:00:00,62.5,60.7,29.33,ENE,61,0.0,7.0,94,0.00,,,0.17,Wunderground v.1.15,2013-06-30 07:00:00,
2013-06-30 03:10:00,62.1,60.7,29.33,ENE,61,0.0,7.0,95,0.00,,,0.17,Wunderground v.1.15,2013-06-30 07:10:00,
2013-06-30 03:20:00,61.8,60.4,29.33,NNE,12,0.0,7.0,95,0.00,,,0.17,Wunderground v.1.15,2013-06-30 07:20:00,
2013-06-30 03:30:00,61.3,59.9,29.33,NNW,338,1.0,1.0,95,0.00,,,0.17,Wunderground v.1.15,2013-06-30 07:30:00,
2013-06-30 03:40:00,61.1,60.0,29.32,NNW,338,0.0,7.0,96,0.00,,,0.17,Wunderground v.1.15,2013-06-30 07:40:00,
2013-06-30 03:50:00,60.9,59.8,29.32,NNW,338,0.0,7.0,96,0.00,,,0.17,Wunderground v.1.15,2013-06-30 07:50:00,
2013-06-30 04:00:00,60.8,59.7,29.32,NNW,327,1.0,1.0,96,0.00,,,0.17,Wunderground v.1.15,2013-06-30 08:00:00,
2013-06-30 04:09:00,60.6,59.5,29.32,NNW,328,0.0,7.0,96,0.00,,,0.17,Wunderground v.1.15,2013-06-30 08:09:00,
2013-06-30 04:20:00,60.4,59.3,29.32,NNW,327,0.0,7.0,96,0.00,,,0.17,Wunderground v.1.15,2013-06-30 08:20:00,
2013-06-30 04:30:00,60.3,59.2,29.32,NNW,327,0.0,7.0,96,0.00,,,0.17,Wunderground v.1.15,2013-06-30 08:30:00,
2013-06-30 04:40:00,60.2,59.1,29.32,NNW,327,0.0,7.0,96,0.00,,,0.17,Wunderground v.1.15,2013-06-30 08:40:00,
2013-06-30 04:50:00,60.1,59.2,29.32,NNW,327,0.0,7.0,97,0.00,,,0.17,Wunderground v.1.15,2013-06-30 08:50:00,
2013-06-30 05:00:00,59.9,58.8,29.33,NNW,327,0.0,7.0,96,0.00,,,0.17,Wunderground v.1.15,2013-06-30 09:00:00,
2013-06-30 05:10:00,59.8,58.7,29.33,NNW,327,0.0,7.0,96,0.00,,,0.17,Wunderground v.1.15,2013-06-30 09:10:00,
2013-06-30 05:20:00,59.8,58.9,29.34,NNW,327,0.0,7.0,97,0.00,,,0.17,Wunderground v.1.15,2013-06-30 09:20:00,
2013-06-30 05:30:00,59.7,58.8,29.34,NNW,327,0.0,7.0,97,0.00,,,0.17,Wunderground v.1.15,2013-06-30 09:30:00,
2013-06-30 05:40:00,59.9,59.0,29.35,NNW,327,0.0,7.0,97,0.00,,,0.17,Wunderground v.1.15,2013-06-30 09:40:00,
2013-06-30 05:50:00,60.1,59.2,29.36,NNW,327,0.0,7.0,97,0.00,,,0.17,Wunderground v.1.15,2013-06-30 09:50:00,
2013-06-30 06:00:00,59.9,59.0,29.36,NNW,327,0.0,7.0,97,0.00,,,0.17,Wunderground v.1.15,2013-06-30 10:00:00,
2013-06-30 06:10:00,59.4,58.5,29.36,NNW,327,0.0,7.0,97,0.00,,,0.17,Wunderground v.1.15,2013-06-30 10:10:00,
2013-06-30 06:19:00,59.5,58.6,29.36,NNW,327,0.0,7.0,97,0.00,,,0.17,Wunderground v.1.15,2013-06-30 10:19:00,
2013-06-30 06:30:00,59.2,58.3,29.36,ENE,67,0.0,7.0,97,0.00,,,0.17,Wunderground v.1.15,2013-06-30 10:30:00,
2013-06-30 06:40:00,59.2,58.3,29.36,ENE,67,0.0,7.0,97,0.00,,,0.17,Wunderground v.1.15,2013-06-30 10:40:00,
2013-06-30 06:50:00,59.8,58.9,29.37,ENE,67,0.0,7.0,97,0.00,,,0.17,Wunderground v.1.15,2013-06-30 10:50:00,
2013-06-30 07:00:00,60.2,59.6,29.38,ENE,67,0.0,7.0,98,0.00,,,0.17,Wunderground v.1.15,2013-06-30 11:00:00,
2013-06-30 07:10:00,60.6,59.7,29.37,ENE,67,0.0,7.0,97,0.00,,,0.17,Wunderground v.1.15,2013-06-30 11:10:00,
2013-06-30 07:20:00,61.1,60.2,29.37,ENE,67,0.0,7.0,97,0.00,,,0.17,Wunderground v.1.15,2013-06-30 11:20:00,
2013-06-30 07:30:00,61.5,60.6,29.37,ENE,67,0.0,7.0,97,0.00,,,0.17,Wunderground v.1.15,2013-06-30 11:30:00,
2013-06-30 07:40:00,62.4,61.5,29.38,ENE,67,0.0,7.0,97,0.00,,,0.17,Wunderground v.1.15,2013-06-30 11:40:00,
2013-06-30 07:50:00,62.9,62.0,29.38,ENE,67,0.0,7.0,97,0.00,,,0.17,Wunderground v.1.15,2013-06-30 11:50:00,
2013-06-30 07:59:00,63.5,62.6,29.39,ENE,67,0.0,7.0,97,0.00,,,0.17,Wunderground v.1.15,2013-06-30 11:59:00,
2013-06-30 08:09:00,63.5,62.3,29.39,ENE,67,0.0,0.0,96,0.00,,,0.17,Wunderground v.1.15,2013-06-30 12:09:00,
2013-06-30 08:20:00,63.6,62.4,29.39,NNW,342,1.0,1.0,96,0.00,,,0.17,Wunderground v.1.15,2013-06-30 12:20:00,
2013-06-30 08:30:00,63.4,62.2,29.39,NNW,342,0.0,0.0,96,0.00,,,0.17,Wunderground v.1.15,2013-06-30 12:30:00,
2013-06-30 08:40:00,63.5,62.3,29.40,NNW,338,0.0,0.0,96,0.00,,,0.17,Wunderground v.1.15,2013-06-30 12:40:00,
2013-06-30 08:50:00,63.6,62.4,29.40,WNW,295,0.0,0.0,96,0.00,,,0.17,Wunderground v.1.15,2013-06-30 12:50:00,
2013-06-30 09:00:00,63.7,62.5,29.40,WNW,295,0.0,0.0,96,0.00,,,0.17,Wunderground v.1.15,2013-06-30 13:00:00,
2013-06-30 09:10:00,63.5,62.3,29.40,WNW,295,0.0,0.0,96,0.00,,,0.17,Wunderground v.1.15,2013-06-30 13:10:00,
2013-06-30 09:20:00,63.9,63.0,29.40,WNW,295,0.0,0.0,97,0.00,,,0.17,Wunderground v.1.15,2013-06-30 13:20:00,
2013-06-30 09:30:00,64.6,63.7,29.40,WNW,295,0.0,0.0,97,0.00,,,0.17,Wunderground v.1.15,2013-06-30 13:30:00,
2013-06-30 09:39:00,65.1,64.2,29.40,NE,40,0.0,3.0,97,0.00,,,0.17,Wunderground v.1.15,2013-06-30 13:39:00,
2013-06-30 09:50:00,65.3,64.1,29.40,NE,49,0.0,3.0,96,0.00,,,0.17,Wunderground v.1.15,2013-06-30 13:50:00,
2013-06-30 10:00:00,65.4,63.9,29.40,NE,49,0.0,3.0,95,0.00,,,0.17,Wunderground v.1.15,2013-06-30 14:00:00,
2013-06-30 10:09:00,65.7,64.2,29.41,East,81,2.0,2.0,95,0.00,,,0.17,Wunderground v.1.15,2013-06-30 14:09:00,
2013-06-30 10:20:00,66.2,64.7,29.40,East,92,0.0,3.0,95,0.00,,,0.17,Wunderground v.1.15,2013-06-30 14:20:00,
2013-06-30 10:30:00,67.4,65.9,29.40,ENE,70,3.0,3.0,95,0.00,,,0.17,Wunderground v.1.15,2013-06-30 14:30:00,
2013-06-30 10:40:00,67.9,65.8,29.40,East,79,2.0,2.0,93,0.00,,,0.17,Wunderground v.1.15,2013-06-30 14:40:00,
2013-06-30 10:50:00,69.1,66.7,29.40,East,82,2.0,2.0,92,0.00,,,0.17,Wunderground v.1.15,2013-06-30 14:50:00,
2013-06-30 11:00:00,70.0,66.9,29.40,East,91,4.0,7.0,90,0.00,,,0.17,Wunderground v.1.15,2013-06-30 15:00:00,
2013-06-30 11:10:00,70.4,66.0,29.40,ENE,67,3.0,3.0,86,0.00,,,0.17,Wunderground v.1.15,2013-06-30 15:10:00,
2013-06-30 11:20:00,71.0,65.9,29.41,ESE,115,2.0,5.0,84,0.00,,,0.17,Wunderground v.1.15,2013-06-30 15:20:00,
2013-06-30 11:30:00,71.0,65.6,29.41,ESE,117,4.0,4.0,83,0.00,,,0.17,Wunderground v.1.15,2013-06-30 15:30:00,
2013-06-30 11:39:00,71.3,66.9,29.41,ESE,104,4.0,6.0,86,0.00,,,0.17,Wunderground v.1.15,2013-06-30 15:39:00,
2013-06-30 11:50:00,70.8,65.4,29.41,ESE,105,6.0,6.0,83,0.00,,,0.17,Wunderground v.1.15,2013-06-30 15:50:00,
2013-06-30 12:00:00,71.2,65.8,29.40,East,95,4.0,7.0,83,0.00,,,0.17,Wunderground v.1.15,2013-06-30 16:00:00,
2013-06-30 12:10:00,72.0,66.6,29.40,ENE,57,3.0,4.0,83,0.00,,,0.17,Wunderground v.1.15,2013-06-30 16:10:00,
2013-06-30 12:20:00,72.0,66.6,29.40,ESE,110,5.0,9.0,83,0.00,,,0.17,Wunderground v.1.15,2013-06-30 16:20:00,
2013-06-30 12:30:00,71.9,66.5,29.40,ENE,67,5.0,7.0,83,0.00,,,0.17,Wunderground v.1.15,2013-06-30 16:30:00,
2013-06-30 12:40:00,72.6,66.8,29.40,SE,145,5.0,5.0,82,0.00,,,0.17,Wunderground v.1.15,2013-06-30 16:40:00,
2013-06-30 12:50:00,72.5,66.0,29.40,ENE,75,6.0,6.0,80,0.00,,,0.17,Wunderground v.1.15,2013-06-30 16:50:00,
2013-06-30 13:00:00,72.7,66.9,29.40,East,86,7.0,7.0,82,0.00,,,0.17,Wunderground v.1.15,2013-06-30 17:00:00,
2013-06-30 13:09:00,73.0,66.1,29.40,East,96,7.0,9.0,79,0.00,,,0.17,Wunderground v.1.15,2013-06-30 17:09:00,
2013-06-30 13:19:00,73.0,66.5,29.40,East,94,6.0,7.0,80,0.00,,,0.17,Wunderground v.1.15,2013-06-30 17:19:00,
2013-06-30 13:30:00,73.2,66.3,29.40,SE,132,6.0,6.0,79,0.00,,,0.17,Wunderground v.1.15,2013-06-30 17:30:00,
2013-06-30 13:40:00,73.8,67.2,29.39,SE,135,6.0,12.0,80,0.00,,,0.17,Wunderground v.1.15,2013-06-30 17:40:00,
2013-06-30 13:50:00,73.4,67.6,29.39,East,96,7.0,12.0,82,0.00,,,0.17,Wunderground v.1.15,2013-06-30 17:50:00,
2013-06-30 14:00:00,72.8,66.6,29.39,ESE,115,10.0,14.0,81,0.00,,,0.17,Wunderground v.1.15,2013-06-30 18:00:00,
2013-06-30 14:10:00,73.5,66.6,29.39,SE,125,8.0,12.0,79,0.00,,,0.17,Wunderground v.1.15,2013-06-30 18:10:00,
2013-06-30 14:20:00,72.8,65.9,29.39,ESE,115,10.0,10.0,79,0.00,,,0.17,Wunderground v.1.15,2013-06-30 18:20:00,
2013-06-30 14:30:00,72.3,65.8,29.39,East,93,8.0,8.0,80,0.00,,,0.17,Wunderground v.1.15,2013-06-30 18:30:00,
2013-06-30 14:39:00,73.0,67.2,29.38,South,184,8.0,12.0,82,0.00,,,0.17,Wunderground v.1.15,2013-06-30 18:39:00,
2013-06-30 14:50:00,75.3,66.8,29.38,SSE,162,9.0,9.0,75,0.00,,,0.17,Wunderground v.1.15,2013-06-30 18:50:00,
2013-06-30 15:00:00,75.1,67.4,29.38,ESE,105,7.0,7.0,77,0.00,,,0.17,Wunderground v.1.15,2013-06-30 19:00:00,
2013-06-30 15:10:00,76.0,67.5,29.38,ESE,120,6.0,12.0,75,0.00,,,0.17,Wunderground v.1.15,2013-06-30 19:10:00,
2013-06-30 15:20:00,75.3,66.8,29.38,South,178,3.0,12.0,75,0.00,,,0.17,Wunderground v.1.15,2013-06-30 19:20:00,
2013-06-30 15:30:00,74.8,65.6,29.38,ESE,114,6.0,12.0,73,0.00,,,0.17,Wunderground v.1.15,2013-06-30 19:30:00,
2013-06-30 15:40:00,73.7,65.7,29.38,SE,125,6.0,6.0,76,0.00,,,0.17,Wunderground v.1.15,2013-06-30 19:40:00,
2013-06-30 15:50:00,74.0,66.0,29.38,SSE,155,5.0,12.0,76,0.00,,,0.17,Wunderground v.1.15,2013-06-30 19:50:00,
2013-06-30 16:00:00,74.2,66.1,29.39,SSE,155,5.0,12.0,76,0.00,,,0.17,Wunderground v.1.15,2013-06-30 20:00:00,
2013-06-30 16:10:00,73.9,66.6,29.38,SSE,158,6.0,7.0,78,0.00,,,0.17,Wunderground v.1.15,2013-06-30 20:10:00,
2013-06-30 16:20:00,74.1,66.8,29.38,SE,133,6.0,6.0,78,0.00,,,0.17,Wunderground v.1.15,2013-06-30 20:20:00,
2013-06-30 16:30:00,74.2,67.6,29.39,South,175,3.0,3.0,80,0.00,,,0.17,Wunderground v.1.15,2013-06-30 20:30:00,
2013-06-30 16:40:00,75.4,67.3,29.39,South,173,5.0,6.0,76,0.00,,,0.17,Wunderground v.1.15,2013-06-30 20:40:00,
2013-06-30 16:50:00,75.3,66.4,29.38,SSE,153,5.0,7.0,74,0.00,,,0.17,Wunderground v.1.15,2013-06-30 20:50:00,
2013-06-30 17:00:00,74.6,66.9,29.38,SSE,147,4.0,4.0,77,0.00,,,0.17,Wunderground v.1.15,2013-06-30 21:00:00,
2013-06-30 17:10:00,74.0,66.0,29.38,SE,135,4.0,4.0,76,0.00,,,0.17,Wunderground v.1.15,2013-06-30 21:10:00,
2013-06-30 17:19:00,73.5,66.2,29.38,South,178,3.0,13.0,78,0.00,,,0.17,Wunderground v.1.15,2013-06-30 21:19:00,
2013-06-30 17:29:00,73.8,66.9,29.38,SE,138,5.0,13.0,79,0.00,,,0.17,Wunderground v.1.15,2013-06-30 21:29:00,
2013-06-30 17:40:00,73.4,66.5,29.39,South,185,3.0,13.0,79,0.00,,,0.17,Wunderground v.1.15,2013-06-30 21:40:00,
2013-06-30 17:50:00,73.7,66.4,29.39,SSE,166,6.0,13.0,78,0.00,,,0.17,Wunderground v.1.15,2013-06-30 21:50:00,
2013-06-30 18:00:00,73.7,64.9,29.39,South,169,4.0,13.0,74,0.00,,,0.17,Wunderground v.1.15,2013-06-30 22:00:00,
2013-06-30 18:10:00,73.8,65.4,29.39,SSE,159,1.0,1.0,75,0.00,,,0.17,Wunderground v.1.15,2013-06-30 22:10:00,
2013-06-30 18:20:00,73.5,65.1,29.40,SSE,161,1.0,1.0,75,0.00,,,0.17,Wunderground v.1.15,2013-06-30 22:20:00,
2013-06-30 18:29:00,72.9,65.6,29.40,SSE,165,1.0,13.0,78,0.00,,,0.17,Wunderground v.1.15,2013-06-30 22:29:00,
2013-06-30 18:40:00,72.4,65.5,29.40,SSE,150,3.0,3.0,79,0.00,,,0.17,Wunderground v.1.15,2013-06-30 22:40:00,
2013-06-30 18:50:00,72.1,65.6,29.40,SSE,149,4.0,13.0,80,0.00,,,0.17,Wunderground v.1.15,2013-06-30 22:50:00,
2013-06-30 19:00:00,71.6,66.8,29.40,South,176,5.0,13.0,85,0.00,,,0.17,Wunderground v.1.15,2013-06-30 23:00:00,
2013-06-30 19:10:00,71.0,67.3,29.39,SSW,207,3.0,13.0,88,0.00,,,0.17,Wunderground v.1.15,2013-06-30 23:10:00,
2013-06-30 19:19:00,70.1,67.3,29.40,SE,146,11.0,15.0,91,0.00,,,0.17,Wunderground v.1.15,2013-06-30 23:19:00,
2013-06-30 19:30:00,67.6,65.5,29.40,SSE,167,15.0,15.0,93,1.78,,,0.29,Wunderground v.1.15,2013-06-30 23:30:00,
2013-06-30 19:40:00,67.8,66.3,29.41,South,176,10.0,13.0,95,1.03,,,0.64,Wunderground v.1.15,2013-06-30 23:40:00,
2013-06-30 19:50:00,67.9,66.4,29.41,South,176,10.0,10.0,95,1.54,,,0.85,Wunderground v.1.15,2013-06-30 23:50:00,
2013-06-30 20:00:00,67.7,66.5,29.42,ESE,109,9.0,21.0,96,0.17,,,0.96,Wunderground v.1.15,2013-07-01 00:00:00,
2013-06-30 20:10:00,67.8,66.6,29.42,South,175,9.0,9.0,96,0.05,,,0.96,Wunderground v.1.15,2013-07-01 00:10:00,
2013-06-30 20:20:00,67.6,66.4,29.42,SE,129,10.0,10.0,96,0.00,,,0.96,Wunderground v.1.15,2013-07-01 00:20:00,
2013-06-30 20:30:00,67.1,65.9,29.43,ESE,103,10.0,11.0,96,0.00,,,0.97,Wunderground v.1.15,2013-07-01 00:30:00,
2013-06-30 20:40:00,67.1,66.2,29.43,SSE,167,5.0,8.0,97,0.06,,,0.98,Wunderground v.1.15,2013-07-01 00:40:00,
2013-06-30 20:50:00,66.9,65.7,29.44,SSE,167,8.0,14.0,96,0.08,,,0.99,Wunderground v.1.15,2013-07-01 00:50:00,
2013-06-30 21:00:00,66.6,65.7,29.44,South,181,9.0,11.0,97,0.04,,,1.00,Wunderground v.1.15,2013-07-01 01:00:00,
2013-06-30 21:10:00,66.3,65.4,29.45,SE,146,7.0,7.0,97,0.24,,,1.05,Wunderground v.1.15,2013-07-01 01:10:00,
2013-06-30 21:20:00,65.9,65.0,29.44,SSE,161,9.0,9.0,97,0.18,,,1.07,Wunderground v.1.15,2013-07-01 01:20:00,
2013-06-30 21:30:00,65.6,64.7,29.44,SE,133,11.0,11.0,97,0.31,,,1.12,Wunderground v.1.15,2013-07-01 01:30:00,
2013-06-30 21:39:00,65.3,64.4,29.45,SSE,167,8.0,24.0,97,0.21,,,1.17,Wunderground v.1.15,2013-07-01 01:39:00,
2013-06-30 21:50:00,65.3,64.4,29.46,South,171,6.0,24.0,97,0.15,,,1.19,Wunderground v.1.15,2013-07-01 01:50:00,
2013-06-30 22:00:00,64.7,63.8,29.46,SSE,155,6.0,6.0,97,0.27,,,1.24,Wunderground v.1.15,2013-07-01 02:00:00,
2013-06-30 22:10:00,64.5,63.6,29.46,SSE,161,4.0,4.0,97,0.15,,,1.27,Wunderground v.1.15,2013-07-01 02:10:00,
2013-06-30 22:20:00,64.2,63.3,29.46,SSE,152,7.0,7.0,97,0.14,,,1.30,Wunderground v.1.15,2013-07-01 02:20:00,
2013-06-30 22:29:00,64.2,63.3,29.46,SE,139,6.0,6.0,97,0.14,,,1.33,Wunderground v.1.15,2013-07-01 02:29:00,
2013-06-30 22:40:00,64.1,63.5,29.46,SE,140,7.0,24.0,98,0.12,,,1.35,Wunderground v.1.15,2013-07-01 02:40:00,
2013-06-30 22:50:00,64.1,63.5,29.46,SSE,165,6.0,6.0,98,0.10,,,1.37,Wunderground v.1.15,2013-07-01 02:50:00,
2013-06-30 23:00:00,64.2,63.6,29.46,SE,131,2.0,24.0,98,0.06,,,1.37,Wunderground v.1.15,2013-07-01 03:00:00,
2013-06-30 23:10:00,64.0,63.4,29.47,South,184,5.0,24.0,98,0.10,,,1.39,Wunderground v.1.15,2013-07-01 03:10:00,
2013-06-30 23:20:00,63.6,63.0,29.47,South,180,6.0,24.0,98,0.05,,,1.39,Wunderground v.1.15,2013-07-01 03:20:00,
2013-06-30 23:30:00,63.5,62.9,29.47,South,184,1.0,1.0,98,0.00,,,1.40,Wunderground v.1.15,2013-07-01 03:30:00,
2013-06-30 23:40:00,63.5,62.9,29.47,South,184,0.0,24.0,98,0.00,,,1.40,Wunderground v.1.15,2013-07-01 03:40:00,
2013-06-30 23:50:00,63.4,62.8,29.47,South,184,0.0,24.0,98,0.00,,,1.41,Wunderground v.1.15,2013-07-01 03:50:00,